(678) Fredegundis
ephemeris date magn radius delta ra dec elong phase
Today18 Sep 202515.33.086 AU4.002 AU12h50m-10°22'21.1°6.7°
Opposition22 May 202613.63.090 AU2.081 AU15h51m-26°07'174.2°1.9°
(678) Fredegundis - 2025-09-18
astro.vanbuitenen.nl


 
-1 year
-1 month
-1 day
Now
+1 day
+1 month
+1 year

The interactive orbit chart above shows the body's path through the solar system and its position at the given date. Green and blue lines are shown perpendicular to the ecliptic plane: Green if the path is above the ecliptic plane, blue if it is below. (Left-click and drag to rotate the view; Right-click and drag to move the view; Use scroll wheel to zoom in our out.)

The orbital elements of Fredegundis are:

            e (Eccentricity)                : 0.2202350
            a (Semimajor axis)              : 2.5716118
            i (Inclination)                 : 6.09747
            Ω (Longitude of ascending node) : 281.05884
            ω (Argument of perihelion)      : 121.04385
            M (Mean anomaly)                : 117.34997
            Epoch                           : 2025 May 05

            L (Longitude of perihelion)     : 222.24650
            B (Latitude of perihelion)      : 5.22152
            P (Orbital period in years)     : 4.12            
        

The light curve chart below shows the estimated development of the minor planet's magnitude.


The all-sky chart below shows the path of the minor planet over the same period as the light curve. The current position is marked yellow.





The following chart shows the path of the minor planet in the next few days. The field of view is optimized for (~10x50) binoculars and finderscopes. A more printer-friendly version of the same chart can be found below.




Ephemerides:
Date       Time       RA (2000)    DEC (2000)    delta   radius  elong  phase   PA    magn
2025-09-18 00:00 UT   12 50 09.8   -10 22 53     4.002    3.086   21.1    6.7   125   15.3 
2025-09-18 02:50 UT   12 50 19.3   -10 23 49     4.003    3.086   21.0    6.7   125   15.3 
2025-09-19 00:00 UT   12 51 30.6   -10 30 47     4.008    3.086   20.5    6.5   125   15.3 
2025-09-20 00:00 UT   12 52 51.6   -10 38 41     4.013    3.087   19.9    6.3   126   15.3 
2025-09-21 00:00 UT   12 54 12.7   -10 46 36     4.018    3.088   19.3    6.2   126   15.3 
2025-09-22 00:00 UT   12 55 34.0   -10 54 31     4.023    3.089   18.7    6.0   127   15.3 
2025-09-23 00:00 UT   12 56 55.4   -11 02 27     4.028    3.090   18.1    5.8   127   15.3 
2025-09-24 00:00 UT   12 58 16.9   -11 10 22     4.033    3.090   17.5    5.6   127   15.3 
2025-09-25 00:00 UT   12 59 38.5   -11 18 18     4.037    3.091   16.9    5.4   128   15.3 
2025-09-26 00:00 UT   13 01 00.2   -11 26 14     4.042    3.092   16.3    5.2   128   15.3 
2025-09-27 00:00 UT   13 02 22.1   -11 34 10     4.046    3.093   15.7    5.0   129   15.3 
2025-09-28 00:00 UT   13 03 44.0   -11 42 06     4.050    3.094   15.1    4.8   130   15.3 
2025-09-29 00:00 UT   13 05 06.1   -11 50 02     4.054    3.094   14.5    4.6   130   15.2 
2025-09-30 00:00 UT   13 06 28.3   -11 57 57     4.058    3.095   13.9    4.5   131   15.2 
2025-10-01 00:00 UT   13 07 50.5   -12 05 53     4.062    3.096   13.3    4.3   132   15.2 
2025-10-02 00:00 UT   13 09 12.9   -12 13 49     4.065    3.097   12.7    4.1   133   15.2 
2025-10-03 00:00 UT   13 10 35.4   -12 21 44     4.068    3.097   12.1    3.9   134   15.2 
2025-10-04 00:00 UT   13 11 58.0   -12 29 39     4.072    3.098   11.6    3.7   135   15.2 
2025-10-05 00:00 UT   13 13 20.6   -12 37 34     4.075    3.099   11.0    3.5   136   15.2 
2025-10-06 00:00 UT   13 14 43.4   -12 45 29     4.077    3.099   10.4    3.3   138   15.2 
2025-10-07 00:00 UT   13 16 06.3   -12 53 23     4.080    3.100    9.9    3.2   139   15.2 
2025-10-08 00:00 UT   13 17 29.2   -13 01 17     4.083    3.101    9.3    3.0   141   15.2 
2025-10-09 00:00 UT   13 18 52.2   -13 09 10     4.085    3.102    8.8    2.8   143   15.2 
2025-10-10 00:00 UT   13 20 15.4   -13 17 03     4.087    3.102    8.2    2.6   145   15.1 
2025-10-11 00:00 UT   13 21 38.6   -13 24 56     4.089    3.103    7.7    2.5   147   15.1 


    Terminology:
            
    delta:  distance between minor planet and earth in AU
    radius: distance between minor planet and sun in AU
    magn:   magnitude (brightness) estimate    
    ra:     right ascension in hours (24h = 360deg)
    dec:    declination in degrees
    elong:  elongation in degrees (angle sun-earth-minor planet)    
    phase:  phase angle in degrees (angle sun-minor planet-earth)        
    AU:     Astronomical Unit (mean distance between earth and sun: 149597870.7 km
    

Orbital elements provided by the MPC (Minor Planet Center).
Calculations by a modified version of AAPlus, a C# implementation of the AA+ project by PJ Naughter from the algorithms presented in the book "Astronomical Algorithms" by Jean Meeus.
NGC2000 dso catalog and star labels from VizieR as provided by the Strasbourg astronomical Data Center.
Tycho2 catalog from the ESO archive.